Overview Statistics Trail Chart Weather Telemetry Raw packets
 

This is the latest recevied weather packets stored in our database for station/object HA9OZD-18. If no packets are shown the sender has not sent any weather packets the latest 10 day(s).

<< 3 4 5 6 7 8 9 >>
Time Temp. Humidity Pressure Rain* Wind** Luminosity Snow
1788324306 12.78° C 70% 1020.2 hPa - - - -
1788320706 12.78° C 65% 1020 hPa - - - -
1788317106 13.33° C 65% 1020.1 hPa - - - -
1788313505 13.33° C 63% 1020 hPa - - - -
1788309905 13.33° C 60% 1019.9 hPa - - - -
1788306305 13.89° C 52% 1020 hPa - - - -
1788302705 13.89° C 50% 1019.8 hPa - - - -
1788299105 14.44° C 48% 1019.5 hPa - - - -
1788295515 15° C 47% 1019.1 hPa - - - -
1788295504 15° C 47% 1019.1 hPa - - - -
1788291904 15.56° C 45% 1018.7 hPa - - - -
1788288300 16.11° C 42% 1018.3 hPa - - - -
1788284699 16.67° C 40% 1017.7 hPa - - - -
1788281099 18.33° C 35% 1017.9 hPa - - - -
1788277499 20° C 31% 1018 hPa - - - -
1788273905 21.67° C 27% 1017.7 hPa - - - -
1788270298 23.89° C 25% 1017.8 hPa - - - -
1788266698 30.56° C 17% 1017.9 hPa - - - -
1788263098 23.89° C 27% 1018.1 hPa - - - -
1788259498 22.22° C 29% 1018.3 hPa - - - -
1788255897 21.67° C 33% 1018.5 hPa - - - -
1788252297 20° C 36% 1018.4 hPa - - - -
1788248697 18.89° C 43% 1018.3 hPa - - - -
1788245097 17.22° C 49% 1017.8 hPa - - - -
1788241496 16.11° C 54% 1017.3 hPa - - - -

* Rain since midnight (hover to see other rain measurements)
** Current wind speed in m/s (hover to see current wind gust speed)